Location: Buckeye Ditch
(40.9104°N, 122.9517°W)
Time: 13:28:38
(UTC+00:00)

A-11 Canister half - Visible Passes

Search period start: 18 May 2025 00:00
Search period end: 28 May 2025 00:00
Orbit: 1524 x 1684 km, 47.3° (Epoch: 17 May)

Date Brightness Start Highest point End Pass type
(mag) Time Alt. Az. Time Alt. Az. Time Alt. Az.
18 May 9.1 03:45:10 10° WSW 03:54:39 87° SSE 04:04:30 10° ENE visible
18 May 9.5 05:50:51 10° W 06:00:22 61° N 06:10:13 10° ENE visible
18 May 9.2 07:56:41 10° WNW 08:06:31 73° NNE 08:16:37 10° ESE visible
18 May 9.1 10:01:58 10° WNW 10:11:34 56° SW 10:21:22 10° SE visible
18 May 10.2 12:09:52 10° W 12:15:05 16° WSW 12:20:21 10° SSW visible
19 May 9.5 05:28:59 10° W 05:38:28 61° N 05:48:18 10° ENE visible
19 May 9.2 07:34:51 10° WNW 07:44:38 71° NNE 07:54:43 10° ESE visible
19 May 9.1 09:40:07 10° WNW 09:49:45 58° SW 09:59:36 10° SE visible
19 May 10.2 11:47:40 10° W 11:53:21 17° WSW 11:59:05 10° SSW visible
20 May 9.5 05:07:07 10° W 05:16:35 62° N 05:26:24 10° ENE visible
20 May 9.3 07:13:00 10° WNW 07:22:45 70° NNE 07:32:48 10° E visible
20 May 9.0 09:18:17 10° WNW 09:27:56 61° SW 09:37:50 10° SE visible
20 May 10.1 11:25:31 10° W 11:31:36 18° SW 11:37:45 10° SSW visible
21 May 9.5 04:45:16 10° W 04:54:43 63° N 05:04:30 10° ENE visible
21 May 9.3 06:51:11 10° WNW 07:00:52 69° NNE 07:10:53 10° E visible
21 May 9.0 08:56:27 10° WNW 09:06:07 64° SW 09:11:57 28° SSE visible
21 May 10.1 11:03:24 10° W 11:09:51 19° SW 11:09:52 19° SW visible
22 May 9.5 04:23:24 10° W 04:32:50 63° N 04:42:37 10° ENE visible
22 May 9.3 06:29:20 10° WNW 06:38:59 67° NNE 06:48:58 10° E visible
22 May 9.0 08:34:36 10° WNW 08:44:18 66° SW 08:48:23 40° SSE visible
22 May 10.1 10:41:20 10° W 10:46:31 20° WSW 10:46:31 20° WSW visible
23 May 9.5 04:01:33 10° W 04:10:57 64° N 04:20:42 10° ENE visible
23 May 9.3 06:07:30 10° WNW 06:17:07 66° NNE 06:27:03 10° E visible
23 May 9.0 08:12:46 10° WNW 08:22:28 69° SW 08:26:04 44° SSE visible
23 May 10.1 10:19:17 10° W 10:24:15 21° WSW 10:24:15 21° WSW visible
24 May 9.4 05:45:40 10° WNW 05:55:14 65° NNE 06:05:08 10° E visible
24 May 9.0 07:50:56 10° WNW 08:00:39 72° SW 08:04:13 45° SE visible
24 May 10.1 09:57:17 10° W 10:02:25 22° WSW 10:02:25 22° WSW visible
25 May 9.4 05:23:49 10° WNW 05:33:21 64° NNE 05:43:13 10° E visible
25 May 9.0 07:29:06 10° WNW 07:38:49 74° SW 07:42:36 44° SE visible
25 May 10.1 09:35:17 10° WNW 09:40:49 24° WSW 09:40:49 24° WSW visible
26 May 9.4 05:01:58 10° WNW 05:11:28 63° N 05:21:17 10° E visible
26 May 9.0 07:07:17 10° WNW 07:16:59 77° SSW 07:21:10 41° SE visible
26 May 10.0 09:13:20 10° WNW 09:19:23 26° WSW 09:19:23 26° WSW visible
27 May 9.5 04:40:08 10° WNW 04:49:35 62° N 04:59:22 10° E visible
27 May 9.0 06:45:28 10° WNW 06:55:09 79° SSW 06:59:49 37° SE visible
27 May 9.9 08:51:22 10° WNW 08:58:04 28° WSW 08:58:04 28° WSW visible
